Date,TemperatureHighF,TemperatureAvgF,TemperatureLowF,DewpointHighF,DewpointAvgF,DewpointLowF,HumidityHigh,HumidityAvg,HumidityLow,PressureMaxIn,PressureMinIn,WindSpeedMaxMPH,WindSpeedAvgMPH,GustSpeedMaxMPH,PrecipitationSumIn
2013-1-1,35.1,30.9,23.4,35.1,30.9,23.4,100,100,100,29.26,29.15,8,1,8,0.00
2013-1-2,36.0,23.2,14.2,36.0,23.2,14.2,100,100,100,29.38,29.26,5,0,5,0.00
2013-1-3,38.7,25.1,14.4,38.7,25.1,14.4,100,100,100,29.44,29.32,15,2,15,0.00
2013-1-4,39.4,31.6,27.9,39.4,31.6,27.9,100,100,100,29.47,29.41,13,5,13,0.00
2013-1-5,44.6,32.4,23.2,44.2,32.4,23.2,100,100,100,29.47,29.29,9,2,9,0.16
2013-1-6,38.7,33.3,26.6,38.7,33.3,26.6,100,100,100,29.47,29.18,15,5,15,0.04
2013-1-7,43.5,31.2,21.4,43.5,31.2,21.4,100,100,100,29.59,29.38,9,1,9,0.00
2013-1-8,44.8,36.8,27.3,44.8,36.8,27.1,100,100,100,29.41,29.35,6,0,6,0.00
2013-1-9,56.7,45.8,36.9,55.8,45.7,36.9,100,100,97,29.65,29.35,11,3,11,0.04
2013-1-10,45.3,38.8,32.9,45.3,38.8,32.9,100,100,100,29.65,29.23,11,2,11,0.08
2013-1-11,63.0,54.6,45.3,60.8,54.1,45.1,100,98,87,29.23,29.03,17,4,17,0.43
2013-1-12,66.0,60.5,52.7,66.0,60.5,52.7,100,100,100,29.18,28.97,17,4,17,0.00
2013-1-13,66.0,54.0,34.3,66.0,54.0,34.3,100,100,100,29.29,28.91,17,5,17,0.94
2013-1-14,34.3,26.0,22.3,34.2,26.0,22.3,100,100,100,29.56,29.29,8,3,8,0.00
2013-1-15,34.3,27.6,21.7,34.2,27.6,21.7,100,100,100,29.50,29.23,11,3,11,0.00
2013-1-16,36.7,32.4,30.0,36.7,32.4,30.0,100,100,100,29.23,29.12,9,2,9,0.00
2013-1-17,44.8,33.4,26.1,44.6,33.4,26.1,100,100,100,29.50,29.23,8,2,8,0.00
2013-1-18,42.3,30.0,16.5,42.1,30.0,16.3,100,100,100,29.65,29.38,15,3,15,0.00
2013-1-19,56.7,45.5,36.5,55.6,45.4,36.5,100,100,97,29.38,29.06,22,8,23,0.00
2013-1-20,46.8,34.2,25.2,46.8,34.2,25.2,100,100,100,29.38,29.09,18,4,18,0.00
2013-1-21,27.9,20.7,10.8,27.1,20.7,10.8,100,100,100,29.38,29.23,22,4,22,0.00
2013-1-22,20.7,12.4,5.2,20.3,12.4,5.0,100,100,100,29.50,29.35,12,4,12,0.00
2013-1-23,21.9,17.3,9.5,21.9,17.3,9.5,100,100,100,29.47,29.21,10,2,10,0.00
2013-1-24,25.9,19.3,12.7,25.5,19.3,12.7,100,100,100,29.68,29.21,13,3,13,0.00
2013-1-25,25.5,22.3,19.2,25.5,22.3,19.2,100,100,100,29.56,29.18,9,2,9,0.00
2013-1-26,36.5,24.9,18.7,36.5,24.9,18.7,100,100,100,29.56,29.26,6,2,6,0.00
2013-1-27,38.7,29.2,19.4,38.7,29.2,19.4,100,100,100,29.56,29.29,8,2,8,0.20
2013-1-28,53.8,47.9,36.3,53.8,47.9,36.1,100,100,100,29.29,29.18,14,5,14,0.12
2013-1-29,64.6,59.1,52.5,64.6,59.1,52.5,100,100,100,29.21,28.76,18,7,18,0.00
2013-1-30,66.6,52.6,32.2,66.4,52.6,32.0,100,100,100,28.76,28.47,22,7,22,0.83
2013-1-31,32.4,26.3,15.6,32.4,26.3,15.4,100,100,100,29.18,28.73,18,7,18,0.00